Harlan, KY

7:47 PM EST on November 17, 2019 (GMT -0500)
Harlan

Weather History for KI35 - September, 2019

Change the Weather History Date:

Sunday, September 8, 2019

  Actual Average (WUND) Record (WUND)
Temperature  
Mean Temperature 70 °F -  
Max Temperature 85 °F - - (-1)
Min Temperature 57 °F - - (-1)
Cooling Degree Days 6    
Growing Degree Days 20 (Base 50)    
Moisture  
Dew Point 59 °F    
Average Humidity 77    
Maximum Humidity 100    
Minimum Humidity 32    
Precipitation  
Precipitation 0.00 in - - ()
Sea Level Pressure  
Sea Level Pressure 30.09 in    
Wind  
Wind Speed 1 mph ()    
Max Wind Speed 7 mph    
Max Gust Speed -    
Visibility 7.1 miles    
Events      
Averages and records for this station are not official NWS values.
T = Trace of Precipitation, MM = Missing Value Source: Averaged Metar Reports

Daily Weather History Graph

Daily Weather History Graph

Search for Another Location

Airport or City:

Astronomy

Sep. 08, 2019 Rise Set
Actual Time 7:09 AM EDT 7:51 PM EDT
Civil Twilight 6:43 AM EDT 8:18 PM EDT
Nautical Twilight 6:12 AM EDT 8:48 PM EDT
Astronomical Twilight 5:40 AM EDT 9:20 PM EDT
Moon 4:52 PM EDT (9/8) 1:55 AM EDT (9/8)
Length of Visible Light 13h 34m
Length of Day
12h 41m
Waxing Gibbous, 75% of the Moon is Illuminated
Sep 8
Waxing Gibbous
Sep 14
Full
Sep 21
Last Quarter
Sep 28
New
Oct 5
First Quarter

Hourly Weather History & Observations

Time (EDT) Temp. Heat Index Dew Point Humidity Pressure Visibility Wind Dir Wind Speed Gust Speed Precip Events Conditions
12:15 AM 61.0 °F - 60.1 °F 97% 30.07 in 10.0 mi Calm Calm - N/A   Clear
12:35 AM 61.0 °F - 60.3 °F 97% 30.07 in 10.0 mi Calm Calm - N/A   Clear
12:55 AM 60.3 °F - 59.9 °F 99% 30.08 in 7.0 mi Calm Calm - N/A   Clear
1:15 AM 60.1 °F - 59.7 °F 99% 30.08 in 7.0 mi Calm Calm - N/A   Clear
1:35 AM 59.9 °F - 59.4 °F 98% 30.08 in 7.0 mi Calm Calm - N/A   Clear
1:55 AM 59.5 °F - 59.2 °F 99% 30.08 in 5.0 mi Calm Calm - N/A   Scattered Clouds
2:15 AM 59.4 °F - 59.0 °F 99% 30.08 in 5.0 mi Calm Calm - N/A   Scattered Clouds
2:35 AM 59.0 °F - 58.8 °F 99% 30.07 in 7.0 mi East 3.5 mph - N/A   Clear
2:55 AM 59.2 °F - 59.0 °F 99% 30.06 in 7.0 mi Calm Calm - N/A   Clear
3:15 AM 58.6 °F - 58.3 °F 99% 30.06 in 1.5 mi Calm Calm - N/A   Mostly Cloudy
3:35 AM 58.8 °F - 58.5 °F 99% 30.06 in 5.0 mi Calm Calm - N/A   Scattered Clouds
3:55 AM 58.5 °F - 58.3 °F 99% 30.05 in 1.5 mi Calm Calm - N/A   Overcast
4:15 AM 58.1 °F - 58.1 °F 100% 30.05 in 3.0 mi Calm Calm - N/A   Overcast
4:35 AM 58.3 °F - 58.3 °F 100% 30.05 in 1.2 mi Calm Calm - N/A   Overcast
4:55 AM 58.5 °F - 58.5 °F 100% 30.05 in 1.5 mi Calm Calm - N/A   Overcast
5:15 AM 58.5 °F - 58.3 °F 99% 30.05 in 1.0 mi Calm Calm - N/A   Overcast
5:35 AM 58.6 °F - 58.6 °F 100% 30.05 in 1.0 mi Calm Calm - N/A   Overcast
5:55 AM 58.6 °F - 58.6 °F 100% 30.06 in 0.5 mi Calm Calm - N/A   Overcast
6:15 AM 58.6 °F - 58.6 °F 100% 30.06 in 1.0 mi Calm Calm - N/A   Overcast
6:35 AM 58.3 °F - 58.3 °F 100% 30.07 in 1.0 mi Calm Calm - N/A   Overcast
6:55 AM 58.3 °F - 58.3 °F 100% 30.08 in 0.2 mi Calm Calm - N/A   Overcast
7:15 AM 58.1 °F - 58.1 °F 100% 30.09 in 0.5 mi Calm Calm - N/A   Overcast
7:35 AM 58.1 °F - 58.1 °F 100% 30.10 in 0.2 mi Calm Calm - N/A   Overcast
7:55 AM 57.6 °F - 57.6 °F 100% 30.11 in 0.2 mi Calm Calm - N/A   Overcast
8:15 AM 58.1 °F - 58.1 °F 100% 30.11 in 0.2 mi Calm Calm - N/A   Overcast
8:35 AM 58.5 °F - 58.5 °F 100% 30.11 in 0.2 mi Calm Calm - N/A   Overcast
8:55 AM 58.8 °F - 58.8 °F 100% 30.11 in 0.5 mi Calm Calm - N/A   Overcast
9:15 AM 59.0 °F - 58.6 °F 99% 30.11 in 0.5 mi Calm Calm - N/A   Overcast
9:35 AM 60.3 °F - 59.5 °F 97% 30.11 in 1.5 mi Calm Calm - N/A   Overcast
9:55 AM 61.2 °F - 59.9 °F 96% 30.11 in 7.0 mi Calm Calm - N/A   Overcast
10:15 AM 63.7 °F - 60.8 °F 90% 30.11 in 10.0 mi Calm Calm - N/A   Scattered Clouds
10:35 AM 65.7 °F - 60.3 °F 83% 30.11 in 10.0 mi Calm Calm - N/A   Clear
10:55 AM 69.3 °F - 61.2 °F 75% 30.11 in 10.0 mi Calm Calm - N/A   Clear
11:15 AM 71.4 °F - 61.0 °F 70% 30.12 in 10.0 mi Calm Calm - N/A   Clear
11:35 AM 73.6 °F - 60.8 °F 64% 30.11 in 10.0 mi Calm Calm - N/A   Clear
11:55 AM 77.5 °F - 62.6 °F 60% 30.10 in 10.0 mi Calm Calm - N/A   Clear
12:15 PM 76.6 °F - 60.6 °F 58% 30.10 in 10.0 mi Calm Calm - N/A   Clear
12:35 PM 77.9 °F - 59.4 °F 53% 30.11 in 10.0 mi Calm Calm - N/A   Clear
12:55 PM 78.8 °F - 60.1 °F 53% 30.11 in 10.0 mi West 4.6 mph - N/A   Clear
1:15 PM 80.1 °F 81.1 °F 60.8 °F 52% 30.10 in 10.0 mi SW 5.8 mph - N/A   Clear
1:35 PM 80.8 °F 81.5 °F 60.8 °F 50% 30.09 in 10.0 mi South 4.6 mph - N/A   Clear
1:55 PM 80.2 °F 81.1 °F 60.6 °F 51% 30.09 in 10.0 mi SSW 3.5 mph - N/A   Clear
2:15 PM 81.9 °F 82.2 °F 59.9 °F 47% 30.09 in 10.0 mi West 5.8 mph - N/A   Clear
2:55 PM 83.5 °F 83.1 °F 58.1 °F 42% 30.07 in 10.0 mi WNW 3.5 mph - N/A   Clear
3:15 PM 84.2 °F 83.2 °F 55.8 °F 38% 30.08 in 10.0 mi Calm Calm - N/A   Clear
3:35 PM 84.2 °F 83.0 °F 55.0 °F 37% 30.09 in 10.0 mi WNW 5.8 mph - N/A   Clear
3:55 PM 84.9 °F - 52.3 °F 32% 30.09 in 10.0 mi West 6.9 mph - N/A   Clear
4:15 PM 84.9 °F 83.4 °F 54.1 °F 35% 30.08 in 10.0 mi West 4.6 mph - N/A   Clear
4:35 PM 84.6 °F 83.1 °F 53.8 °F 35% 30.08 in 10.0 mi WSW 6.9 mph - N/A   Clear
4:55 PM 84.0 °F 83.2 °F 56.3 °F 39% 30.08 in 10.0 mi SW 3.5 mph - N/A   Clear
5:15 PM 84.4 °F 83.4 °F 56.5 °F 38% 30.08 in 10.0 mi WSW 5.8 mph - N/A   Clear
5:35 PM 84.2 °F 83.2 °F 55.8 °F 38% 30.08 in 10.0 mi WSW 3.5 mph - N/A   Clear
6:15 PM 83.5 °F - 51.6 °F 33% 30.08 in 10.0 mi West 5.8 mph - N/A   Clear
6:35 PM 82.9 °F 82.0 °F 54.7 °F 38% 30.08 in 10.0 mi WSW 3.5 mph - N/A   Clear
6:55 PM 81.9 °F 81.3 °F 55.6 °F 40% 30.09 in 10.0 mi Calm Calm - N/A   Clear
7:15 PM 77.0 °F - 58.3 °F 52% 30.09 in 10.0 mi Calm Calm - N/A   Clear
7:35 PM 76.8 °F - 57.9 °F 52% 30.09 in 10.0 mi Calm Calm - N/A   Clear
7:55 PM 73.0 °F - 59.2 °F 62% 30.09 in 10.0 mi Calm Calm - N/A   Clear
8:15 PM 71.2 °F - 59.2 °F 66% 30.10 in 10.0 mi Calm Calm - N/A   Clear
8:35 PM 70.3 °F - 59.5 °F 69% 30.11 in 10.0 mi Calm Calm - N/A   Clear
8:55 PM 69.1 °F - 59.9 °F 72% 30.12 in 10.0 mi Calm Calm - N/A   Clear
9:15 PM 67.3 °F - 60.8 °F 80% 30.12 in 10.0 mi Calm Calm - N/A   Clear
9:35 PM 67.1 °F - 60.3 °F 79% 30.13 in 10.0 mi Calm Calm - N/A   Clear
9:55 PM 65.7 °F - 60.8 °F 84% 30.13 in 10.0 mi Calm Calm - N/A   Clear
10:15 PM 65.3 °F - 61.0 °F 86% 30.14 in 10.0 mi Calm Calm - N/A   Clear
10:35 PM 64.2 °F - 61.0 °F 89% 30.14 in 10.0 mi Calm Calm - N/A   Clear
10:55 PM 63.9 °F - 61.2 °F 91% 30.14 in 10.0 mi Calm Calm - N/A   Clear
11:15 PM 63.0 °F - 61.0 °F 93% 30.14 in 10.0 mi Calm Calm - N/A   Clear
11:35 PM 62.8 °F - 61.0 °F 94% 30.15 in 10.0 mi Calm Calm - N/A   Clear
11:55 PM 62.4 °F - 60.8 °F 94% 30.15 in 10.0 mi Calm Calm - N/A   Clear